2021�N�x�@��C������Ԃɂ�鑪�茋��,,,,,,,,,,,,,,,
,,,,,,,,,,,,,,,
�P�@����n�_,,,,,,,,,,,,,,,
�ɓ�s�l�c�i�ɓ�s�l�c��4����203-2),,,,,,,,,,,,,,,
,,,,,,,,,,,,,,,
�Q�@���Ԓl�i�m��l�j��2021�N5��11���`2021�N6��2��,,,,,,,,,,,,,,,
,,,,,,,,,,,,,,,
,�N,��,��,��,SO2,SPM,Ox,CO,NO,NO2,PM2.5,���x,���x,����,����
,,,,,ppm,mg/m3,ppm,ppm,ppm,ppm,��g/m3,��,%,�ő�,m/s
H03,2021,5,11,1,***,0.009,***,***,***,***,9,18.3,51.5,N,2.3
H03,2021,5,11,2,0.001,0.011,0.067,0.2,0.003,0.01,6,17.9,53.9,N,3
H03,2021,5,11,3,0.001,0.01,0.069,0.2,0.001,0.008,6,17.4,58,N,2.6
H03,2021,5,11,4,0.001,0.01,0.064,0.2,0.002,0.011,7,17.3,60.1,N,2.4
H03,2021,5,11,5,0.001,0.011,0.057,0.2,0.004,0.017,8,17.1,61.8,N,2.3
H03,2021,5,11,6,0.001,0.013,0.041,0.4,0.012,0.031,10,17.1,65.4,NW,0.5
H03,2021,5,11,7,0.003,0.018,0.037,0.6,0.018,0.031,12,17.4,64,N,1.8
H03,2021,5,11,8,0.006,0.022,0.037,1.2,0.022,0.033,13,20,50.9,NNW,1.5
H03,2021,5,11,9,0.008,0.021,0.043,1.1,0.021,0.031,14,21.8,44.9,NNW,1.2
H03,2021,5,11,10,0.005,0.019,0.056,0.7,0.02,0.022,12,22.8,43,N,3
H03,2021,5,11,11,0.002,0.019,0.068,0.4,0.01,0.019,15,23.6,41.5,N,2.7
H03,2021,5,11,12,0.002,0.018,0.072,0.4,0.01,0.019,15,23.7,41.3,N,2.8
H03,2021,5,11,13,0.002,0.017,0.075,0.3,0.009,0.019,11,23,43.2,N,2.2
H03,2021,5,11,14,0.004,0.02,0.07,0.6,0.011,0.021,13,23.4,42.7,N,2.7
H03,2021,5,11,15,0.002,0.022,0.07,0.3,0.01,0.021,16,23.7,42.7,N,2.6
H03,2021,5,11,16,0.001,0.011,0.067,0.2,0.007,0.018,8,23.4,34.2,NNW,1.6
H03,2021,5,11,17,0.001,0.009,0.061,0.2,0.006,0.022,6,22.6,36.3,NNW,1.6
H03,2021,5,11,18,0.001,0.012,0.057,0.3,0.005,0.019,9,21.3,42.6,NW,0.8
H03,2021,5,11,19,0.001,0.013,0.058,0.2,0.003,0.015,10,20.4,50.4,CALM,0.2
H03,2021,5,11,20,0.001,0.016,0.043,0.2,0.004,0.026,11,19.5,56.3,CALM,0.1
H03,2021,5,11,21,0.001,0.016,0.048,0.3,0.004,0.017,10,18.8,63.5,CALM,0
H03,2021,5,11,22,0.001,0.018,0.043,0.3,0.005,0.021,13,19.5,57.2,NNE,0.6
H03,2021,5,11,23,0.001,0.018,0.038,0.3,0.003,0.019,14,17.7,74.7,SSW,0.5
H03,2021,5,11,24,0.001,0.018,0.05,0.2,0,0.008,14,17.1,83,SW,0.3
H03,2021,5,12,1,0.001,0.016,0.054,0.4,0.001,0.008,13,16.8,82.4,SSW,0.3
H03,2021,5,12,2,0.001,0.02,0.053,0.3,0.001,0.011,13,17,79.2,NE,0.3
H03,2021,5,12,3,0.001,0.021,0.049,0.3,0.005,0.013,13,16.9,78,ENE,0.3
H03,2021,5,12,4,0.001,0.021,0.046,0.3,0.002,0.011,15,16.3,80.2,CALM,0.2
H03,2021,5,12,5,0.001,0.021,0.036,0.3,0.011,0.023,15,17,75.7,E,0.3
H03,2021,5,12,6,0.001,0.024,0.032,0.4,0.019,0.028,16,17.1,72.8,NE,0.8
H03,2021,5,12,7,0.001,0.021,0.032,0.4,0.025,0.024,15,17.9,69.1,NE,1.3
H03,2021,5,12,8,0.001,0.024,0.039,0.4,0.017,0.027,15,19.4,56,ENE,0.8
H03,2021,5,12,9,0.001,0.02,0.05,0.3,0.016,0.017,13,21,49.1,SSE,2
H03,2021,5,12,10,0.001,0.015,0.058,0.2,0.008,0.015,11,21.6,49.2,SE,3.3
H03,2021,5,12,11,0.001,0.016,0.065,0.3,0.006,0.014,12,21.6,50.4,S,3.5
H03,2021,5,12,12,0.001,0.016,0.068,0.2,0.006,0.011,12,21.3,54.2,SSE,3.8
H03,2021,5,12,13,0.001,0.014,0.069,0.2,0.005,0.01,11,20.6,54.4,SE,4.7
H03,2021,5,12,14,0.001,0.016,0.068,0.2,0.006,0.01,13,19.8,57.4,SSE,4.4
H03,2021,5,12,15,0.001,0.011,***,0.2,0.007,0.011,8,19.8,56.2,SSE,3.9
H03,2021,5,12,16,0.001,0.014,***,0.2,0.003,0.012,5,19.7,57.8,SSE,3.9
H03,2021,5,12,17,0,0.015,***,0.2,0.003,0.01,9,18.9,64,SSE,2.8
H03,2021,5,12,18,0,0.012,0.045,0.2,0.003,0.009,17,18.6,64.6,SSE,3.2
H03,2021,5,12,19,0,0.01,0.047,0.2,0.002,0.009,9,18.5,64.1,SE,2.4
H03,2021,5,12,20,0.001,0.012,0.049,0.3,0.002,0.007,8,17.6,67.9,SSE,3.5
H03,2021,5,12,21,0,0.011,0.05,0.2,0.002,0.005,9,17.2,70.5,SE,3.2
H03,2021,5,12,22,0.001,0.01,0.05,0.2,0.001,0.004,8,16.7,72,SSE,3.7
H03,2021,5,12,23,0.001,0.011,0.049,0.2,0.002,0.005,9,16.3,79.3,SE,3.1
H03,2021,5,12,24,0,0.01,0.048,0.2,0.002,0.003,9,16.5,76.1,SE,2.2
H03,2021,5,13,1,0,0.013,0.046,0.2,0.003,0.006,9,16.8,73.4,SE,1.1
H03,2021,5,13,2,0,0.015,0.035,0.2,0.005,0.012,13,16.1,86.9,NNW,0.5
H03,2021,5,13,3,0.001,0.015,0.033,0.2,0.002,0.011,10,15,94.1,NNW,0.7
H03,2021,5,13,4,0,0.016,0.023,0.2,0.004,0.018,11,15.6,96,N,0.3
H03,2021,5,13,5,0.001,0.023,0.009,0.3,0.012,0.029,17,15.3,94.6,N,0.3
H03,2021,5,13,6,0.001,0.025,0.008,0.4,0.026,0.033,17,15.6,94,NNW,1.3
H03,2021,5,13,7,0.001,0.024,0.007,0.4,0.036,0.036,18,16.4,89.9,N,1.4
H03,2021,5,13,8,0.001,0.021,0.011,0.4,0.022,0.028,14,17.1,86.6,N,1.3
H03,2021,5,13,9,0.001,0.02,0.011,0.5,0.028,0.029,12,18,79,NNE,1
H03,2021,5,13,10,0.001,0.028,0.011,0.4,0.035,0.033,20,18.9,75,NNW,0.9
H03,2021,5,13,11,0.002,0.024,0.017,0.4,0.025,0.033,15,20.4,66.4,NNW,0.7
H03,2021,5,13,12,0.002,0.015,0.033,0.4,0.017,0.02,12,23.1,58.8,SSE,1.2
H03,2021,5,13,13,0.001,0.014,0.047,0.4,0.005,0.012,12,23.7,58.1,SSW,0.8
H03,2021,5,13,14,0.002,0.018,0.055,0.4,0.002,0.009,11,22.8,59.1,SW,0.4
H03,2021,5,13,15,0.004,0.015,0.054,0.3,0.005,0.013,11,22.8,61.8,WNW,0.5
H03,2021,5,13,16,0.007,0.018,0.05,0.3,0.004,0.019,14,22.2,63.9,WSW,0.5
H03,2021,5,13,17,0.011,0.015,0.052,0.3,0.003,0.014,10,22.4,63.9,WSW,0.4
H03,2021,5,13,18,0.01,0.011,0.051,0.3,0.003,0.013,7,21.9,65.8,CALM,0.2
H03,2021,5,13,19,0.007,0.012,0.039,0.3,0.002,0.021,10,21.3,69.5,W,0.3
H03,2021,5,13,20,0.003,0.014,0.043,0.3,0.001,0.014,10,20.7,71.7,CALM,0.2
H03,2021,5,13,21,0.01,0.02,0.029,0.3,0.002,0.022,14,20.6,75.1,CALM,0.1
H03,2021,5,13,22,0.011,0.02,0.022,0.3,0.002,0.023,15,20,79,CALM,0
H03,2021,5,13,23,0.005,0.012,0.022,0.3,0.003,0.015,7,20,81.3,ENE,0.3
H03,2021,5,13,24,0.002,0.012,0.018,0.3,0.002,0.014,8,19.5,82.5,S,0.5
H03,2021,5,14,1,0.001,0.011,0.019,0.3,0.001,0.011,8,19.5,85.1,SSE,0.3
H03,2021,5,14,2,0.001,0.011,0.017,0.3,0.003,0.01,4,19.2,85.8,CALM,0
H03,2021,5,14,3,0.001,0.008,0.017,0.3,0.007,0.009,4,19.5,83.5,ENE,0.8
H03,2021,5,14,4,0.001,0.014,0.011,0.3,0.006,0.015,8,18.5,86.4,CALM,0
H03,2021,5,14,5,0.001,0.017,0.005,0.3,0.006,0.02,12,18,91.2,CALM,0
H03,2021,5,14,6,0.002,0.01,0.011,0.3,0.014,0.015,5,20,78.6,N,0.5
H03,2021,5,14,7,0.001,0.013,0.009,0.3,0.033,0.023,8,21.3,65.3,CALM,0.1
H03,2021,5,14,8,0.002,0.031,0.015,0.4,0.023,0.027,15,24,50.7,CALM,0.2
H03,2021,5,14,9,0.005,0.041,0.02,0.5,0.031,0.036,22,25.7,50.4,NNW,0.6
H03,2021,5,14,10,0.006,0.023,0.034,0.6,0.012,0.024,14,27.2,46.7,WSW,0.4
H03,2021,5,14,11,0.003,0.012,0.043,0.5,0.007,0.016,7,27.5,47.7,W,0.5
H03,2021,5,14,12,0.004,0.014,0.052,0.5,0.011,0.02,11,28.1,45.2,WSW,0.4
H03,2021,5,14,13,0.003,0.013,0.059,0.5,0.005,0.014,11,28.1,48.4,WSW,0.4
H03,2021,5,14,14,0.005,0.02,0.059,0.4,0.003,0.013,12,28.4,48.4,SW,0.5
H03,2021,5,14,15,0.002,0.01,0.056,0.4,0.002,0.009,9,27.2,59.1,SSW,1.3
H03,2021,5,14,16,0.001,0.011,0.053,0.3,0.001,0.005,6,26.1,60.6,SSW,1.2
H03,2021,5,14,17,0.001,0.007,0.047,0.3,0.001,0.004,5,24.5,66.6,SSW,1.2
H03,2021,5,14,18,0.001,0.006,0.041,0.3,0.001,0.008,4,23.4,69.3,S,2.5
H03,2021,5,14,19,0.001,0.007,0.041,0.3,0.002,0.008,4,22.5,72.6,SSE,2.6
H03,2021,5,14,20,0.001,0.011,0.041,0.3,0.001,0.008,6,21.9,75.8,SSE,1.8
H03,2021,5,14,21,0.001,0.013,0.035,0.3,0.003,0.01,6,21.1,80.4,SSE,2
H03,2021,5,14,22,0.001,0.013,0.034,0.3,0.002,0.011,6,20.6,84.2,S,1.9
H03,2021,5,14,23,0.001,0.01,0.039,0.3,0.001,0.006,5,20.7,83,SSE,2.1
H03,2021,5,14,24,0.001,0.01,0.039,0.2,0.001,0.006,6,20.3,84.7,SSE,1.9
H03,2021,5,15,1,0.001,0.01,0.038,0.2,0.002,0.005,4,20,84.6,SE,0.7
H03,2021,5,15,2,0.001,0.01,0.037,0.2,0.001,0.007,6,20.1,85.3,SSE,1.3
H03,2021,5,15,3,0.001,0.011,0.036,0.2,0.001,0.006,5,19.5,88.3,S,1.5
H03,2021,5,15,4,0.001,0.012,0.035,0.2,0,0.005,5,19.4,90.9,S,1.7
H03,2021,5,15,5,0.001,0.014,0.033,0.2,0.001,0.006,8,19.5,90.2,SSE,2.2
H03,2021,5,15,6,0.001,0.016,0.029,0.2,0.004,0.011,10,19.8,87.9,SSE,2.6
H03,2021,5,15,7,0.001,0.016,0.03,0.3,0.004,0.012,8,20.6,85.4,SSE,2.6
H03,2021,5,15,8,0.001,0.012,0.029,0.3,0.007,0.014,6,21.3,81.4,SSE,2.7
H03,2021,5,15,9,0.001,0.009,0.036,0.3,0.004,0.009,5,22.5,75.1,SSE,2.6
H03,2021,5,15,10,0.001,0.012,0.041,0.3,0.002,0.005,5,23.1,72.3,S,3.2
H03,2021,5,15,11,0,0.009,0.046,0.2,0.001,0.002,5,23.7,67.3,SSW,2.1
H03,2021,5,15,12,0.001,0.011,0.048,0.2,0.001,0.002,5,23.6,71.2,S,2.4
H03,2021,5,15,13,0,0.01,0.049,0.2,0.001,0.003,5,23.7,67.7,S,3.7
H03,2021,5,15,14,0.001,0.008,0.053,0.2,0.001,0.003,6,24.3,67,S,4.1
H03,2021,5,15,15,0.001,0.011,0.052,0.2,0.001,0.002,7,24,68.5,S,4.6
H03,2021,5,15,16,0,0.007,0.049,0.2,0.001,0.002,7,23.7,67.1,S,3.4
H03,2021,5,15,17,0,0.009,0.047,0.2,0.001,0.003,6,23.1,71.1,SSE,4
H03,2021,5,15,18,0.001,0.011,0.047,0.2,0.001,0.004,8,22.5,73.2,SSE,4.1
H03,2021,5,15,19,0.001,0.011,0.048,0.2,0.001,0.004,6,21.6,77,SSE,2.7
H03,2021,5,15,20,0.001,0.011,0.047,0.2,0.001,0.003,6,21.6,75.8,SSE,2.8
H03,2021,5,15,21,0.001,0.011,0.046,0.2,0,0.004,6,21.3,78,SSE,2.4
H03,2021,5,15,22,0.001,0.009,0.044,0.2,0.001,0.004,6,21.3,76.8,SSE,2.2
H03,2021,5,15,23,0.001,0.012,0.044,0.2,0,0.004,7,21.3,76.4,SSE,3.1
H03,2021,5,15,24,0.001,0.011,0.045,0.2,0,0.002,8,21.3,76.9,SSE,2.9
H03,2021,5,16,1,0.001,0.011,0.045,0.2,0,0.002,8,21,77.7,SSE,2.6
H03,2021,5,16,2,0.001,0.012,0.045,0.2,0,0.002,7,20.9,78.1,SSE,2.5
H03,2021,5,16,3,0.001,0.012,0.044,0.2,0,0.003,6,20.7,78.1,SSE,2.6
H03,2021,5,16,4,0.001,0.014,0.044,0.2,0,0.003,7,20.1,80.6,SE,2.5
H03,2021,5,16,5,0,0.011,0.043,0.2,0.001,0.004,6,19.7,80.8,SE,2.3
H03,2021,5,16,6,0.001,0.012,0.044,0.2,0.001,0.003,8,19.5,82.7,SE,2.2
H03,2021,5,16,7,0.001,0.013,0.045,0.2,0.002,0.003,9,19.5,81.2,SE,2.3
H03,2021,5,16,8,0,0.014,0.044,0.2,0.002,0.004,5,20,77.4,SE,2.3
H03,2021,5,16,9,0.001,0.012,0.045,0.2,0.001,0.004,7,20.6,72.4,SE,1.9
H03,2021,5,16,10,0,0.014,0.045,0.2,0.002,0.005,9,19.2,87,SSE,3.1
H03,2021,5,16,11,0,0.019,0.045,0.2,0.003,0.005,10,19.2,89.1,ESE,1.1
H03,2021,5,16,12,0,0.014,0.044,0.2,0.002,0.004,8,18.9,92.1,NE,0.8
H03,2021,5,16,13,0,0.011,0.042,0.2,0.002,0.005,7,19.5,86.3,SE,1
H03,2021,5,16,14,0,0.014,0.042,0.3,0.002,0.005,10,19.2,88,ESE,0.7
H03,2021,5,16,15,0.001,0.012,0.04,0.3,0.002,0.005,7,19.1,92.3,NNE,0.9
H03,2021,5,16,16,0.001,0.01,0.036,0.3,0.002,0.008,6,18.6,95.2,NNE,0.6
H03,2021,5,16,17,0,0.008,0.035,0.3,0.001,0.006,5,18.6,94.5,NNE,0.8
H03,2021,5,16,18,0,0.011,0.032,0.3,0.002,0.01,6,18.6,96,NNE,0.7
H03,2021,5,16,19,0.001,0.013,0.03,0.3,0.001,0.01,8,18.6,97,N,0.7
H03,2021,5,16,20,0.001,0.011,0.028,0.3,0.001,0.011,6,18.5,97.2,N,0.5
H03,2021,5,16,21,0,0.009,0.029,0.3,0.001,0.008,6,18.3,97.2,CALM,0.1
H03,2021,5,16,22,0.001,0.008,0.028,0.3,0.001,0.006,5,18.2,97.2,CALM,0.2
H03,2021,5,16,23,0,0.009,0.023,0.3,0.001,0.008,5,18.5,97.9,ENE,0.3
H03,2021,5,16,24,0.001,0.009,0.02,0.3,0.001,0.009,5,18.5,97.9,NNE,0.3
H03,2021,5,17,1,0,0.006,0.022,0.3,0.001,0.006,6,20.1,98.5,SE,2.2
H03,2021,5,17,2,0,0.004,0.023,0.3,0.001,0.004,2,20.3,98.2,SSE,2.4
H03,2021,5,17,3,0,0.004,0.019,0.2,0,0.004,3,20.7,98.9,S,2.6
H03,2021,5,17,4,0,0.006,0.016,0.2,0.001,0.003,3,20.7,99,S,1.9
H03,2021,5,17,5,0,0.004,0.016,0.2,0,0.003,2,20.7,99,S,1.9
H03,2021,5,17,6,0,0.008,0.01,0.2,0.001,0.004,3,21,99,S,1.9
H03,2021,5,17,7,0,0.014,0.006,0.2,0.004,0.006,4,21.2,99,SSE,1.6
H03,2021,5,17,8,0,0.017,0.006,0.2,0.009,0.008,7,21.5,98,SSE,1.1
H03,2021,5,17,9,0.001,0.018,0.005,0.2,0.023,0.015,7,21.9,94.8,SSE,1.3
H03,2021,5,17,10,0,0.021,0.006,0.2,0.018,0.011,7,22.1,95.2,S,1.6
H03,2021,5,17,11,0,0.021,0.009,0.2,0.005,0.007,9,22.1,98.1,S,1.5
H03,2021,5,17,12,0,0.028,0.008,0.2,0.013,0.011,11,22.2,97.4,S,1.4
H03,2021,5,17,13,0,0.022,0.008,0.2,0.011,0.009,9,22.5,96.8,SSE,1.4
H03,2021,5,17,14,0,0.027,0.009,0.2,0.003,0.003,8,22.5,94.6,S,1.3
H03,2021,5,17,15,0,0.027,0.009,0.2,0.008,0.005,9,22.8,92.7,SSE,2.3
H03,2021,5,17,16,0,0.034,0.012,0.2,0.003,0.005,9,22.8,94.7,S,1.8
H03,2021,5,17,17,0,0.032,0.01,0.2,0.005,0.006,10,22.7,94.7,SSE,2
H03,2021,5,17,18,0.001,0.032,0.006,0.2,0.005,0.009,11,22.2,96.4,S,1.1
H03,2021,5,17,19,0.001,0.03,0.007,0.2,0.002,0.006,9,22.2,97.4,S,0.5
H03,2021,5,17,20,0,0.023,0.006,0.2,0.006,0.008,7,22.1,97.9,SSE,0.7
H03,2021,5,17,21,0,0.024,0.005,0.2,0.004,0.008,8,22.1,97.9,N,0.8
H03,2021,5,17,22,0,0.027,0.001,0.2,0.011,0.013,10,22.2,96.8,N,1.2
H03,2021,5,17,23,0.001,0.03,0.001,0.2,0.009,0.014,11,22.1,97.2,NNW,0.4
H03,2021,5,17,24,0.001,0.028,0.001,0.3,0.012,0.018,10,22.2,95.5,N,1.4
H03,2021,5,18,1,***,0.01,0.008,***,***,***,4,21.9,93.4,NNW,1.4
H03,2021,5,18,2,0.001,0.016,0.006,0.3,0.009,0.021,7,21.6,94.4,NNW,0.6
H03,2021,5,18,3,0.001,0.011,0.004,0.4,0.01,0.029,5,21.2,90.2,NNW,0.8
H03,2021,5,18,4,0.002,0.011,0.013,0.4,0.006,0.023,6,20.7,87.7,NNW,1.1
H03,2021,5,18,5,0.002,0.012,0.016,0.5,0.008,0.022,7,20.9,84.6,NNW,1.3
H03,2021,5,18,6,0.001,0.01,0.012,0.4,0.017,0.026,3,21.9,78.7,NNW,1.8
H03,2021,5,18,7,0.002,0.011,0.015,0.5,0.019,0.026,5,23.4,69.8,NNW,1.3
H03,2021,5,18,8,0.001,0.008,0.023,0.5,0.016,0.022,5,24.2,66.3,NNW,1.1
H03,2021,5,18,9,0.003,0.016,0.021,0.5,0.028,0.029,5,26.1,56.3,NNE,0.8
H03,2021,5,18,10,0.003,0.01,0.027,0.5,0.018,0.025,6,25.3,61.7,NNW,0.4
H03,2021,5,18,11,0.003,0.01,0.034,0.6,0.011,0.015,8,26,60.1,W,0.4
H03,2021,5,18,12,0.002,0.007,0.044,0.5,0.008,0.01,4,25.8,59.4,SW,0.3
H03,2021,5,18,13,0.001,0.01,0.05,0.5,0.003,0.005,9,26.3,59.6,WSW,0.3
H03,2021,5,18,14,0.001,0.011,0.05,0.4,0.001,0.008,7,24.5,70.5,SSW,0.8
H03,2021,5,18,15,0.001,0.014,0.053,0.4,0.001,0.009,10,23,77.6,SW,0.6
H03,2021,5,18,16,0.001,0.014,0.042,0.4,0.001,0.016,9,21.6,94.4,SSW,0.5
H03,2021,5,18,17,0.001,0.022,0.037,0.4,0.003,0.014,10,21.3,95.5,S,1
H03,2021,5,18,18,0.001,0.016,0.042,0.4,0,0.011,6,20.6,96.2,SSW,0.8
H03,2021,5,18,19,0.001,0.019,0.041,0.4,0.001,0.01,10,20.6,95.9,SSW,0.6
H03,2021,5,18,20,0.001,0.015,0.043,0.4,0,0.004,8,21,96.2,CALM,0.2
H03,2021,5,18,21,0.001,0.019,0.034,0.4,0.004,0.013,11,21.5,93.8,N,0.9
H03,2021,5,18,22,0.001,0.02,0.031,0.4,0.004,0.012,12,21.8,90.4,NE,0.9
H03,2021,5,18,23,0.001,0.035,0.023,0.4,0.004,0.018,18,21.9,91,NE,0.8
H03,2021,5,18,24,0.001,0.044,0.013,0.4,0.003,0.021,25,21.2,94.4,S,0.3
H03,2021,5,19,1,0.001,0.044,0.013,0.4,0.001,0.015,24,21,96.7,CALM,0
H03,2021,5,19,2,0.001,0.045,0.014,0.4,0.001,0.012,24,21,96.8,CALM,0
H03,2021,5,19,3,0.001,0.059,0.014,0.4,0.001,0.013,31,21,95.6,S,0.3
H03,2021,5,19,4,0.002,0.054,0.015,0.4,0.001,0.01,28,20.9,96.4,S,0.4
H03,2021,5,19,5,0.001,0.039,0.014,0.4,0.006,0.013,20,20.6,95.8,SSE,0.8
H03,2021,5,19,6,0.001,0.028,0.009,0.4,0.016,0.015,17,20.9,94.7,SE,0.4
H03,2021,5,19,7,0.001,0.023,0.01,0.4,0.022,0.018,13,21.6,91,SSE,0.7
H03,2021,5,19,8,0.001,0.026,0.016,0.4,0.006,0.013,15,21.5,89.3,SSW,0.6
H03,2021,5,19,9,0.001,0.03,0.021,0.4,0.001,0.009,20,21.3,94.6,SSW,0.4
H03,2021,5,19,10,0,0.047,0.016,0.4,0.005,0.013,26,21.5,96.5,SSE,0.4
H03,2021,5,19,11,0.001,0.043,0.019,0.4,0.006,0.013,22,21.6,94.9,SSW,0.4
H03,2021,5,19,12,0.001,0.026,0.028,0.4,0.002,0.011,14,21.6,95,S,0.6
H03,2021,5,19,13,0.001,0.017,0.026,0.4,0.003,0.011,10,21.3,96.4,SSW,0.3
H03,2021,5,19,14,0.001,0.012,0.026,0.4,0.005,0.013,9,21.3,95.1,SSE,2.1
H03,2021,5,19,15,0.001,0.008,0.035,0.4,0.001,0.005,4,21.2,93.6,SSW,0.3
H03,2021,5,19,16,0.001,0.006,0.038,0.4,0.001,0.005,3,21.8,91.7,CALM,0.1
H03,2021,5,19,17,0.001,0.012,0.026,0.4,0.006,0.017,8,21.3,90.3,SSW,0.7
H03,2021,5,19,18,0.001,0.01,0.038,0.4,0,0.006,6,21.3,93.6,CALM,0
H03,2021,5,19,19,0.001,0.009,0.033,0.4,0.001,0.008,7,21.2,96,CALM,0
H03,2021,5,19,20,0.001,0.011,0.022,0.4,0.005,0.015,7,21.3,96.4,CALM,0.2
H03,2021,5,19,21,0.001,0.014,0.005,0.4,0.005,0.032,10,20.6,96.5,CALM,0
H03,2021,5,19,22,0.001,0.017,0.006,0.4,0.008,0.033,12,20.4,96.9,CALM,0.1
H03,2021,5,19,23,0.001,0.018,0.014,0.4,0.004,0.023,10,20.6,94.5,CALM,0
H03,2021,5,19,24,0.003,0.02,0.01,0.4,0.005,0.023,12,20.4,90.5,CALM,0.1
H03,2021,5,20,1,0.001,0.018,0.011,0.4,0.007,0.022,12,20.6,89.4,N,0.6
H03,2021,5,20,2,0.001,0.019,0.011,0.4,0.006,0.022,13,20.1,86,NNW,1.1
H03,2021,5,20,3,0.001,0.019,0.012,0.4,0.004,0.018,14,19.5,87.6,N,0.6
H03,2021,5,20,4,0.002,0.02,0.006,0.4,0.012,0.022,15,18.9,89.4,CALM,0.1
H03,2021,5,20,5,0.002,0.02,0.004,0.4,0.017,0.025,13,18.5,87.3,NNW,1.1
H03,2021,5,20,6,0.002,0.023,0.004,0.5,0.026,0.022,14,18.9,84.1,N,2
H03,2021,5,20,7,0.002,0.016,0.007,0.5,0.028,0.02,10,19.5,82.8,CALM,0.2
H03,2021,5,20,8,0.001,0.019,0.006,0.5,0.025,0.022,11,19.5,83.3,CALM,0
H03,2021,5,20,9,0.001,0.02,0.008,0.5,0.01,0.018,12,20.1,84.8,CALM,0
H03,2021,5,20,10,0.001,0.029,0.01,0.5,0.009,0.017,17,20.4,89.3,SSW,0.5
H03,2021,5,20,11,0.001,0.027,0.011,0.5,0.005,0.011,17,21,90.9,SSW,0.4
H03,2021,5,20,12,0.001,0.018,0.017,0.5,0.008,0.011,9,22.2,86.4,S,2
H03,2021,5,20,13,0.001,0.027,0.025,0.4,0.003,0.011,16,21.6,91.2,S,2.3
H03,2021,5,20,14,0.001,0.032,0.031,0.4,0.007,0.015,18,21.2,95.3,SSE,2.3
H03,2021,5,20,15,0.001,0.02,0.038,0.4,0.007,0.022,12,21.3,95.9,SSE,3.6
H03,2021,5,20,16,0.001,0.007,0.039,0.4,0.008,0.012,3,21.3,95.4,SSE,4.1
H03,2021,5,20,17,0.001,0.006,0.034,0.4,0.004,0.011,2,21.2,96.7,SSE,4.1
H03,2021,5,20,18,0,0.006,0.031,0.3,0.001,0.008,2,21,97.3,SSE,3
H03,2021,5,20,19,0.001,0.006,0.029,0.3,0.002,0.01,4,21,97.8,SSE,3.4
H03,2021,5,20,20,0.001,0.005,0.023,0.3,0.002,0.009,2,21.5,98.4,SSE,3.5
H03,2021,5,20,21,0,0.008,0.011,0.3,0.001,0.004,2,21.8,99,S,3.2
H03,2021,5,20,22,0.001,0.02,0.005,0.2,0.001,0.005,5,21.6,99,SSW,2.4
H03,2021,5,20,23,0,0.026,0.007,0.2,0,0.004,6,21.6,99.1,S,2.9
H03,2021,5,20,24,0,0.027,0.01,0.2,0,0.002,6,21.6,99,S,2.4
H03,2021,5,21,1,0,0.026,0.01,0.2,0,0.002,5,21.3,99,SSW,1.1
H03,2021,5,21,2,0,0.027,0.009,0.2,0.001,0.003,5,21.5,99,S,1.6
H03,2021,5,21,3,0,0.022,0.009,0.2,0,0.003,4,21.5,99,SSW,1.8
H03,2021,5,21,4,0.001,0.028,0.009,0.2,0,0.002,5,21.5,99.1,S,2.4
H03,2021,5,21,5,0,0.03,0.009,0.2,0,0.003,6,21.6,99,S,2.4
H03,2021,5,21,6,0,0.029,0.009,0.2,0.001,0.003,6,21.6,99,S,2.2
H03,2021,5,21,7,0,0.03,0.008,0.1,0.001,0.004,6,21.6,99.1,SSW,0.9
H03,2021,5,21,8,0.001,0.023,0.01,0.2,0.001,0.002,4,22.4,99.1,CALM,0
H03,2021,5,21,9,0.001,0.016,0.005,0.2,0.018,0.013,4,21.6,98.9,N,0.4
H03,2021,5,21,10,0.001,0.011,0.009,0.2,0.035,0.027,4,22.4,99,SSE,1.1
H03,2021,5,21,11,0.001,0.014,0.007,0.2,0.023,0.014,4,22.8,96.2,SSE,2.4
H03,2021,5,21,12,0,0.012,0.012,0.2,0.002,0.003,4,22.8,96.2,S,1.9
H03,2021,5,21,13,0.001,0.013,0.013,0.2,0.002,0.002,3,22.2,95.9,SSW,0.9
H03,2021,5,21,14,0.001,0.02,0.013,0.2,0.001,0.002,5,22.7,95.1,S,1
H03,2021,5,21,15,0,0.023,0.014,0.2,0.003,0.005,8,22.6,94.6,SSE,1.3
H03,2021,5,21,16,0.001,0.03,0.009,0.2,0.007,0.011,8,22.4,96.4,S,1.2
H03,2021,5,21,17,0.001,0.02,0.015,0.2,0.004,0.015,6,21.3,94.7,CALM,0
H03,2021,5,21,18,0.001,0.016,0.027,0.3,0.005,0.019,7,21.5,93.9,E,0.5
H03,2021,5,21,19,0.001,0.013,0.033,0.3,0.004,0.01,7,20.6,97.6,SSW,0.3
H03,2021,5,21,20,0.001,0.015,0.024,0.3,0.001,0.009,6,20.9,98.4,CALM,0
H03,2021,5,21,21,0,0.013,0.026,0.3,0.005,0.018,7,20.4,97.8,CALM,0.1
H03,2021,5,21,22,0.001,0.012,0.035,0.3,0.001,0.013,7,19.1,93.7,CALM,0.1
H03,2021,5,21,23,0.001,0.018,0.035,0.3,0.001,0.015,9,19.1,91.7,N,0.4
H03,2021,5,21,24,0.001,0.015,0.041,0.3,0.001,0.009,8,19.2,90.3,CALM,0.2
H03,2021,5,22,1,0,0.017,0.04,0.3,0.002,0.01,9,19.1,87.1,NNW,0.3
H03,2021,5,22,2,0.001,0.017,0.036,0.3,0.001,0.014,11,18.9,86.1,CALM,0.2
H03,2021,5,22,3,0.006,0.017,0.045,0.3,0.001,0.007,10,18.9,83.3,NW,0.4
H03,2021,5,22,4,0.003,0.015,0.04,0.3,0.001,0.012,12,18.2,82.8,WSW,0.3
H03,2021,5,22,5,0.005,0.021,0.038,0.3,0.001,0.015,17,18.3,79.6,CALM,0.2
H03,2021,5,22,6,0.009,0.017,0.041,0.3,0.001,0.012,12,18.6,73.9,W,0.4
H03,2021,5,22,7,0.012,0.022,0.041,0.3,0.003,0.01,13,19.7,66.8,WNW,0.6
H03,2021,5,22,8,0.008,0.017,0.043,0.3,0.004,0.01,13,19.8,66.5,W,0.4
H03,2021,5,22,9,0.004,0.013,0.045,0.3,0.004,0.011,9,20.4,62.5,WNW,0.4
H03,2021,5,22,10,0.003,0.018,0.046,0.3,0.004,0.012,13,20.7,64,WNW,0.4
H03,2021,5,22,11,0.004,0.015,0.05,0.3,0.003,0.011,12,22.2,57.5,WNW,0.5
H03,2021,5,22,12,0.003,0.016,0.053,0.3,0.003,0.012,12,22.7,55,WNW,0.6
H03,2021,5,22,13,0.002,0.015,0.059,0.3,0.002,0.008,10,23.1,52,WNW,0.6
H03,2021,5,22,14,0.002,0.017,0.059,0.3,0.003,0.01,11,22.7,54.8,WSW,0.6
H03,2021,5,22,15,0.004,0.017,0.054,0.3,0.003,0.013,11,22.2,57.9,NNW,1
H03,2021,5,22,16,0.001,0.007,0.044,0.3,0.004,0.011,8,21.8,55.3,NW,0.9
H03,2021,5,22,17,0.001,0.008,0.044,0.3,0.002,0.008,7,20.9,59.7,NW,0.7
H03,2021,5,22,18,0.001,0.009,0.043,0.3,0.001,0.01,5,20.7,62.8,CALM,0.1
H03,2021,5,22,19,0.001,0.008,0.042,0.3,0.001,0.009,6,20,66.7,W,0.3
H03,2021,5,22,20,0.004,0.01,0.036,0.3,0.001,0.011,8,19.2,73.3,CALM,0.2
H03,2021,5,22,21,0.001,0.008,0.04,0.3,0.001,0.009,5,18.6,67.9,WNW,0.3
H03,2021,5,22,22,0.001,0.008,0.042,0.3,0.001,0.008,6,18,68.1,NNW,0.7
H03,2021,5,22,23,0.001,0.008,0.043,0.3,0,0.008,6,17.7,72.6,CALM,0.2
H03,2021,5,22,24,0.001,0.012,0.027,0.3,0,0.019,9,17.4,78.6,CALM,0.1
H03,2021,5,23,1,0.001,0.013,0.022,0.3,0.002,0.019,14,16.6,81.1,CALM,0
H03,2021,5,23,2,0.001,0.017,0.026,0.3,0.002,0.01,11,16.8,80.1,NNE,0.5
H03,2021,5,23,3,0.001,0.014,0.019,0.3,0.004,0.021,13,16.2,83.8,CALM,0
H03,2021,5,23,4,0.001,0.014,0.019,0.3,0.001,0.018,13,15.8,84.2,CALM,0.1
H03,2021,5,23,5,0.001,0.017,0.01,0.3,0.004,0.025,12,16.3,82,NNW,0.4
H03,2021,5,23,6,0.002,0.021,0.016,0.3,0.004,0.021,15,17.5,76.8,NNW,0.7
H03,2021,5,23,7,0.002,0.016,0.026,0.4,0.006,0.014,10,19.8,65.3,N,2.1
H03,2021,5,23,8,0.002,0.009,0.041,0.4,0.003,0.01,3,22.5,49.6,NNW,1.2
H03,2021,5,23,9,0.001,0.01,0.05,0.3,0.002,0.006,6,23.7,47,NW,1.3
H03,2021,5,23,10,0.001,0.013,0.054,0.3,0.001,0.004,6,23.3,49.9,NW,1.1
H03,2021,5,23,11,0.001,0.009,0.055,0.3,0.002,0.004,8,24,51.8,NW,1.3
H03,2021,5,23,12,0.001,0.009,0.054,0.3,0.002,0.005,4,24.8,50.7,NNW,2.2
H03,2021,5,23,13,0.001,0.008,0.052,0.3,0.002,0.006,9,24.9,49.4,NW,1.3
H03,2021,5,23,14,0.001,0.007,0.051,0.3,0.002,0.005,4,25.7,48.8,NW,1.1
H03,2021,5,23,15,0.001,0.008,0.052,0.3,0.001,0.005,8,26.1,47.9,NNW,2.1
H03,2021,5,23,16,0.001,0.01,0.054,0.3,0.001,0.004,8,26.1,44,NNW,2.6
H03,2021,5,23,17,0.001,0.011,0.054,0.3,0.001,0.004,9,25.7,42.2,NNW,2.5
H03,2021,5,23,18,0.001,0.009,0.053,0.3,0.001,0.004,10,24.5,45.4,NW,0.6
H03,2021,5,23,19,0.001,0.01,0.05,0.3,0.001,0.008,9,23.7,44.6,NW,1
H03,2021,5,23,20,0.001,0.011,0.051,0.3,0.001,0.004,8,23.2,45.2,NW,1.4
H03,2021,5,23,21,0.001,0.01,0.05,0.3,0,0.003,8,22.5,49.8,NNW,1.6
H03,2021,5,23,22,0.001,0.009,0.048,0.3,0,0.005,9,22.2,49.9,NNW,1.9
H03,2021,5,23,23,0.002,0.014,0.037,0.3,0.001,0.014,11,22.1,51.3,NNW,2.2
H03,2021,5,23,24,0.002,0.012,0.036,0.3,0.001,0.013,9,21.5,55.8,NNW,1.2
H03,2021,5,24,1,0.003,0.018,0.03,0.4,0.001,0.014,12,20.1,62.6,NNW,0.9
H03,2021,5,24,2,0.002,0.017,0.028,0.4,0.002,0.015,10,19.7,64.7,NNW,0.7
H03,2021,5,24,3,0.001,0.019,0.014,0.4,0.004,0.031,13,19.5,65.5,NW,0.5
H03,2021,5,24,4,0.001,0.015,0.017,0.3,0.002,0.022,13,19.2,67.7,CALM,0
H03,2021,5,24,5,0.002,0.02,0.009,0.3,0.01,0.031,14,18.3,71.8,CALM,0.2
H03,2021,5,24,6,0.002,0.023,0.004,0.4,0.034,0.037,18,19.3,67.2,CALM,0
H03,2021,5,24,7,0.002,0.022,0.01,0.4,0.032,0.032,15,21.2,56.8,NNE,1.4
H03,2021,5,24,8,0.002,0.017,0.021,0.4,0.022,0.017,12,22.8,53.2,NNE,1.5
H03,2021,5,24,9,0.001,0.012,0.032,0.4,0.017,0.014,11,24.9,46.3,ENE,1.3
H03,2021,5,24,10,0.001,0.018,0.043,0.4,0.011,0.02,13,26.8,39.6,NNW,0.5
H03,2021,5,24,11,0.003,0.023,0.047,0.4,0.004,0.02,14,25.7,47.5,SSW,0.9
H03,2021,5,24,12,0.003,0.02,0.058,0.4,0.002,0.014,13,24.6,52.4,SSW,0.9
H03,2021,5,24,13,0.001,0.017,0.062,0.4,0.001,0.005,16,23.8,54.6,SSW,1.3
H03,2021,5,24,14,0.001,0.019,0.057,0.4,0.001,0.01,14,23.4,61.3,SSW,1.1
H03,2021,5,24,15,0.001,0.016,0.061,0.4,0.001,0.008,14,22.8,65.1,SSW,1.4
H03,2021,5,24,16,0.001,0.027,0.057,0.3,0,0.005,15,21.8,80.3,SSW,1.1
H03,2021,5,24,17,0.001,0.018,0.049,0.3,0.001,0.009,10,21.5,58,SW,1.1
H03,2021,5,24,18,0.001,0.011,0.066,0.3,0,0.002,7,19.8,65.8,SSW,1.5
H03,2021,5,24,19,0.001,0.013,0.06,0.3,0,0.003,10,17.7,88.7,SW,0.6
H03,2021,5,24,20,0.001,0.012,0.056,0.3,0,0.003,8,17.4,91.7,SSW,0.3
H03,2021,5,24,21,0,0.008,0.058,0.2,0,0.002,6,17.4,91.2,CALM,0.2
H03,2021,5,24,22,0.001,0.008,0.059,0.2,0,0.002,6,17.4,92.2,S,0.7
H03,2021,5,24,23,0.001,0.008,0.059,0.2,0,0.002,6,17.1,91.7,CALM,0
H03,2021,5,24,24,0.001,0.01,0.056,0.2,0.001,0.005,10,17.9,91.1,NNW,1.1
H03,2021,5,25,1,***,0.011,0.047,***,***,***,9,17.7,88.2,NNW,1.4
H03,2021,5,25,2,0.001,0.014,0.038,0.3,0.003,0.013,11,17.7,87.2,NNW,1.2
H03,2021,5,25,3,0.001,0.013,0.04,0.3,0.002,0.012,9,18,84.7,NNW,0.8
H03,2021,5,25,4,0.001,0.012,0.033,0.3,0.003,0.017,9,17.9,85.1,NNW,1.3